User: anonymous   Login
Location: Raleigh
(35.7720°N, 78.6390°W)
Time: 09:52:07
(UTC-04:00)
Language:

JAS-2 - Orbit

View from above orbital plane
View from above orbital plane
View from above satellite
View from above satellite

Ground track
Ground track

The orbit data is extracted from the following two-line orbital elements,

1 24278U 96046B   15215.48761147 -.00000046  00000-0 -76724-5 0  9993
2 24278 098.5447 177.8926 0349597 308.3201 164.1775 13.53055217936423
Epoch (UTC): 03 August 2015 11:42:09
Eccentricity: 0.0349597
inclination: 98.5447°
perigee height: 801 km
apogee height: 1321 km
right ascension of ascending node: 177.8926°
argument of perigee: 308.3201°
revolutions per day: 13.53055217
mean anomaly at epoch: 164.1775°
orbit number at epoch: 93642

The dashed part of the orbit path shows where the satellite is in the earth's shadow,  

DLR